Regional Weather Roundup
Issued by NWS Jackson, KY

Home | Current Version | Previous Version | Text Only | Print | Product List | Glossary On
Versions: 1 2 3 4 5 6 7 8 9 10 11 12 13 14 15 16 17 18 19 20 21 22 23 24 25 26 27
000
ASUS43 KJKL 301210
RWRJKL

EAST KENTUCKY HOURLY WEATHER ROUNDUP
NATIONAL WEATHER SERVICE JACKSON KY
800 AM EDT MON MAY 30 2016

NOTE: "FAIR" INDICATES FEW OR NO CLOUDS BELOW 12,000 FEET WITH
NO SIGNIFICANT WEATHER AND/OR OBSTRUCTIONS TO VISIBILITY.

* THESE REPORTS ARE NOT UNDER NWS QUALITY CONTROL AND MAY NOT
  REPORT WEATHER SUCH AS PRECIPITATION AND FOG.

KYZ079-080-083-085-087-088-110-112-115-119-120-301300
...EASTERN KENTUCKY...

CITY           SKY/WX    TMP DP  RH WIND       PRES   REMARKS
JACKSON        PTSUNNY   66  63  90 S3        30.06R
6HR MIN TEMP:  64; 6HR MAX TEMP:  71;

LONDON         PTSUNNY   69  63  81 CALM      30.06R
6HR MIN TEMP:  64; 6HR MAX TEMP:  69; 6HR PCP: TRACE;

SOMERSET*      MOSUNNY   66  66 100 CALM      30.07S
WILLIAMSBURG*  PTSUNNY   63  63 100 CALM      30.07F
MIDDLESBORO*   CLOUDY    62  62 100 CALM      30.08F
6HR MIN TEMP:  60; 6HR MAX TEMP:  62;

HARLAN APT*    CLOUDY   N/A N/A N/A CALM      30.09S
HAZARD APT*    MOSUNNY   66  66 100 S3        30.06S
BLACK MTN*       N/A    N/A N/A N/A NW2         N/A
PIKE CO APT*   FOG       64  64 100 S5        30.06S VSB<1/4
MOREHEAD APT*  CLOUDY    66  64  94 CALM      30.06S
ASHLAND*       CLOUDY    64  63  94 CALM      30.02S
$$

KYZ035-036-041-042-044-050-067-078-099-301300
...CENTRAL KENTUCKY...

CITY           SKY/WX    TMP DP  RH WIND       PRES   REMARKS
MT STERLING*   PTSUNNY   68  68 100 W3        30.06S
FLEMING/MASON* CLOUDY    64  64  99 NW3       30.06R
DANVILLE*      MOSUNNY   63  61  94 CALM      30.07S
RICHMOND*      MOSUNNY   68  64  88 W3        30.05S
LEXINGTON      MOSUNNY   67  64  90 CALM      30.06R FOG
6HR MIN TEMP:  63; 6HR MAX TEMP:  70;

FRANKFORT      SUNNY     68  63  84 CALM      30.04R
6HR MIN TEMP:  62; 6HR MAX TEMP:  70;

LOUISVILLE     MOSUNNY   72  62  71 CALM      30.05R
6HR MIN TEMP:  68; 6HR MAX TEMP:  73;

LEBANON*         N/A     66  63  88 CALM      30.07R
GLASGOW*       SUNNY     66  66 100 CALM      30.07R
BOWLING GREEN  CLOUDY    71  64  78 CALM      30.06R
6HR MIN TEMP:  65; 6HR MAX TEMP:  71;

$$

KYZ091>093-OHZ055-061-077-WVZ005-015-034-035-042-301300
...SOUTHERN OHIO/WEST VIRGINIA...

CITY           SKY/WX    TMP DP  RH WIND       PRES   REMARKS
COVINGTON      MOSUNNY   69  65  86 CALM      30.05S
COLUMBUS       PTSUNNY   66  63  90 CALM      30.03R
DAYTON         MOSUNNY   69  60  73 NW5       30.07R
WILMINGTON     MOSUNNY   66  63  90 W7        30.05R
HUNTINGTON       N/A     66  62  87 NW3       30.04R
CHARLESTON       N/A     65  62  90 CALM      30.04R
PINEVILLE*     CLOUDY    59  57  91 MISG      30.13F FOG
BECKLEY          N/A     61  57  87 CALM      30.11R
BLUEFIELD        N/A     58  56  93 CALM      30.14R
LOGAN CO APT*    N/A     64  63  94 CALM      30.05S
$$

VAZ002-007-008-TNZ017-027-036-066-071-301300
...SOUTHWEST VIRGINIA/EAST TENNESSEE...

CITY           SKY/WX    TMP DP  RH WIND       PRES   REMARKS
WISE*            N/A     63  63 100 CALM      30.12S
JONESVILLE*    FOG       63  63 100 CALM      30.11R VSB<1/4
ABINGDON*        N/A     63  60  91 E3        30.11R
BRISTOL        MOSUNNY   63  59  87 CALM      30.09R
SEVIERVILLE*   SUNNY     63  61  94 CALM      30.06R
KNOXVILLE      FOG       66  65  96 VRB3      30.05R VSB 1/2
OAK RIDGE      PTSUNNY   66  64  93 CALM      30.07S FOG
CROSSVILLE     SUNNY     67  63  87 CALM      30.10R
NASHVILLE      PTSUNNY   73  64  73 N3        30.06R
$$

...KEY TO REMARKS...
VSB - VISIBILITY IN MILES
WCI - WIND CHILL INDEX
HX  - HEAT INDEX

$$




USA.gov is the U.S. government's official web portal to all federal, state and local government web resources and services.